Skip Page Navigation
NASA JPL Caltech
NASA Logo - Jet Propulsion Laboratory + View the NASA Portal
+ Center for Near-Earth Object Studies
JPL Home Earth Solar System Stars & Galaxies Technology
JPL Solar System Dynamics
BODIES ORBITS EPHEMERIDES TOOLS PHYSICAL DATA DISCOVERY FAQ SITE MAP
JPL Small-Body Database Browser
Search: [ help ]  
385792 (2006 BV127)
Classification: Main-belt Asteroid          SPK-ID: 2385792
Ephemeris | Orbit Diagram | Orbital Elements | Mission Design | Physical Parameters | Discovery Circumstances ]

[ show orbit diagram ]
Orbital Elements at Epoch 2459200.5 (2020-Dec-17.0) TDB
Reference: JPL 14 (heliocentric ecliptic J2000)
 Element Value Uncertainty (1-sigma)   Units 
e .1260983913901912 1.1483e-07  
a 2.569990054049666 3.6501e-08 au
q 2.245918442345213 2.6838e-07 au
i 14.51282475921169 7.1051e-06 deg
node 153.3052881890476 2.7947e-05 deg
peri 57.00931897522471 4.1618e-05 deg
M 169.5881759417921 3.4223e-05 deg
tp 2458491.593988748729
(2019-Jan-08.09398875)
0.00013488 TDB
period 1504.858240459241
4.12
3.2059e-05
8.777e-08
d
yr
n .2392251909988132 5.0964e-09 deg/d
Q 2.894061665754119 4.1103e-08 au
  Orbit Determination Parameters
   # obs. used (total)      128  
   data-arc span      6906 days (18.91 yr)  
   first obs. used      2002-01-13  
   last obs. used      2020-12-10  
   planetary ephem.      DE441  
   SB-pert. ephem.      SB441-N16  
   condition code      0  
   norm. resid. RMS      .58491  
   source      ORB  
   producer      Otto Matic  
   solution date      2021-Apr-14 11:06:39  

Additional Information
 Earth MOID = 1.27736 au 
 Jupiter MOID = 2.14015 au 
 T_jup = 3.375 
[ show covariance matrix ]

Ephemeris | Orbit Diagram | Orbital Elements | Mission Design | Physical Parameters | Discovery Circumstances ]

Physical Parameter Table
Parameter Symbol Value Units Sigma Reference Notes
absolute magnitude H 17.03   n/a MPCxxxxx  

385792 (2006 BV127)          Discovered 2006-Jan-26 by Spacewatch at Kitt Peak
Reference: Last Updated: 2014-02-19
Ephemeris | Orbit Diagram | Orbital Elements | Mission Design | Physical Parameters | Discovery Circumstances ]
ABOUT SSD CREDITS/AWARDS PRIVACY/COPYRIGHT GLOSSARY LINKS
FirstGov 2021-Jun-18 07:24 UT
(server date/time)  
NASA Home Page
Site Manager:   Ryan S. Park
Webmaster  Alan B. Chamberlin